Regional Weather Roundup
Issued by NWS

Home | Current Version | Previous Version | Graphics & Text | Print | Product List | Glossary Off
Versions: 1 2 3 4 5 6 7 8 9 10 11 12 13 14 15 16 17 18 19 20 21 22 23 24 25 26 27 28 29 30 31 32 33 34 35 36 37 38 39 40 41 42 43 44 45 46 47 48 49 50

000
ASUS43 KTOP 050859
RWRKS

WEATHER ROUNDUP FOR KANSAS
NATIONAL WEATHER SERVICE GOODLAND KS
400 AM CDT WED AUG 05 2015

NOTE:  "FAIR" INDICATES FEW OR NO CLOUDS BELOW 12,000 FEET WITH NO
SIGNIFICANT WEATHER AND/OR OBSTRUCTIONS TO VISIBILITY.

KSZ001>006-013>018-027>032-041>047-051000-
NORTHWEST KANSAS

CITY           SKY/WX    TMP DP  RH WIND       PRES   REMARKS
GOODLAND       FOG       57  57 100 N5        30.04F VSB 1
HAYS           CLOUDY    73  64  73 E3        29.93F
HILL CITY      CLOUDY    68  65  90 NE8       29.98S
RUSSELL        HVY RAIN  66  65  96 NE12      29.91F FOG
$$

KSZ061>065-074>080-084>089-051000-
SOUTHWEST KANSAS

CITY           SKY/WX    TMP DP  RH WIND       PRES   REMARKS
DODGE CITY     CLEAR     70  68  93 S9        29.95S
ELKHART          N/A     70  65  84 NW2         N/A
GARDEN CITY    CLEAR     68  66  93 S5        29.96F
GREAT BEND     PTCLDY    72  66  83 S9        29.89F
LIBERAL        CLEAR     72  64  78 SW9       29.95
$$

KSZ066>073-081>083-090>101-051000-
SOUTHEAST KANSAS

CITY           SKY/WX    TMP DP  RH WIND       PRES   REMARKS
CHANUTE        TSTM      72  70  93 VRB3      29.95S FOG
COFFEYVILLE    CLOUDY    72  71  97 CALM      29.91F THUNDER
HUTCHINSON     PTCLDY    73  69  87 S12       29.88F
NEWTON         CLOUDY    72  64  78 SE12G18   29.92F
PARSONS        MOCLDY    73  71  93 SE5       29.92F
WICHITA INTL   MOCLDY    73  69  87 SE10      29.90F
WICHITA JABRA  MOCLDY    72  70  93 SE8       29.90F
$$

KSZ007>012-019>026-033>040-048>060-102>105-051000-
NORTHEAST KANSAS

CITY           SKY/WX    TMP DP  RH WIND       PRES   REMARKS
CONCORDIA      LGT RAIN  68  67  96 N3        29.95F FOG
EMPORIA        CLOUDY    70  67  90 E9        29.94F
LAWRENCE       MOCLDY    70  68  93 E5        29.96F FOG
MANHATTAN      MOCLDY    71  68  90 E5        29.96R
OLATHE IND     PTCLDY    71  69  93 E7        29.98F
OLATHE EXE     CLOUDY    70  69  97 E7        29.97F FOG
SALINA         TSTM      72  70  93 NE12      29.92R VSB 3/4
TOPEKA BILLARD MOCLDY    70  69  97 E3        29.96F
TOPEKA FORBES  CLOUDY    71  67  87 E6        29.96F
$$



USA.gov is the U.S. government's official web portal to all federal, state and local government web resources and services.